Orbital Elements at Epoch 2459000.5 (2020-May-31.0) TDB
Reference: JPL 24 (heliocentric ecliptic J2000)
Element | Value | Uncertainty (1-sigma) | Units |
e | .03083951736761012 | 3.8684e-08 | |
a | 2.30600529386158 | 8.6367e-09 | au |
q | 2.234889203551734 | 8.7209e-08 | au |
i | 7.313387418266746 | 3.5424e-06 | deg |
node | 63.92890433092158 | 3.2941e-05 | deg |
peri | 152.4321809237777 | 8.2289e-05 | deg |
M | 200.670470780634 | 7.7121e-05 | deg |
tp | 2459566.586305751243 (2021-Dec-18.08630575) | 0.00027426 | TDB |
period | 1279.05398998491 3.50 | 7.1857e-06 1.967e-08 | d yr |
n | .281458017268096 | 1.5812e-09 | deg/d |
Q | 2.377121384171425 | 8.9031e-09 | au |
|
| | Orbit Determination Parameters
Additional Information
|